Regional Weather Roundup
Issued by NWS

Home | Current Version | Previous Version | Graphics & Text | Print | Product List | Glossary On
Versions: 1 2 3 4 5 6 7 8 9 10 11 12 13 14 15 16 17 18 19 20 21 22 23 24 25 26 27 28 29 30 31 32 33 34 35 36 37 38 39 40 41 42 43 44 45 46 47 48 49 50
000
ASUS45 KTFX 311504
RWRMT
MONTANA REGIONAL WEATHER ROUNDUP
NATIONAL WEATHER SERVICE GREAT FALLS MT
900 AM MDT MON AUG 31 2015

NOTE: "FAIR" INDICATES FEW OR NO CLOUDS BELOW 12000 FEET WITH NO
SIGNIFICANT WEATHER AND/OR OBSTRUCTIONS TO VISIBILITY.

MTZ001>007-043-311600-
WEST OF THE DIVIDE

CITY           SKY/WX    TMP DP  RH WIND       PRES   REMARKS
KALISPELL      CLOUDY    54  44  69 S9        30.01S
MISSOULA       MOSUNNY   49  45  86 CALM      30.08S
BUTTE          MOSUNNY   49  36  61 CALM      30.11S
MULLAN PASS    PTSUNNY   40  37  89 VRB6G22   30.09R
DEER LODGE       N/A     45  37  76 CALM      30.12F
EUREKA           N/A     57  41  54 SE10        N/A
HAMILTON         N/A     52  39  62 S7        30.08S
LIBBY            N/A     54  48  82 S5        30.02S
$$

MTZ008-052>055-311600-
SOUTHWEST MONTANA

CITY           SKY/WX    TMP DP  RH WIND       PRES   REMARKS
BOZEMAN        SUNNY     51  40  65 CALM      30.07S
DILLON         SUNNY     54  35  48 SW9       30.09F
W YELLOWSTONE  SUNNY     50  27  40 S7        30.18S
$$

MTZ009-010-012-014-046-048-049-054-311600-
EAST SLOPES AND CENTRAL MONTANA

CITY           SKY/WX    TMP DP  RH WIND       PRES   REMARKS
CUT BANK       CLOUDY    56  33  42 W30G45    29.89R
GREAT FALLS    PTSUNNY   58  34  40 SW16G24   29.93R
MALMSTROM AFB  PTSUNNY   60  34  37 SW24G30   29.94R
HELENA         PTSUNNY   61  33  35 W14       30.04R
$$

MTZ011-013-016-021-045-047-050-051-311600-
NORTH CENTRAL MONTANA

CITY           SKY/WX    TMP DP  RH WIND       PRES   REMARKS
HAVRE          SUNNY     59  36  42 MISG      29.87R
LEWISTOWN      SUNNY     59  35  40 W13       29.96S
N BAR RANCH      N/A     57  37  47 NW8       29.99S
CHINOOK          N/A     61  36  39 SW20      29.86R
FORT BENTON      N/A     61  36  39 SW13G21   29.91S
$$

MTZ017>020-022>027-061-062-311600-
NORTHEAST MONTANA

CITY           SKY/WX    TMP DP  RH WIND       PRES   REMARKS
GLASGOW        SUNNY     59  44  57 W5        29.88R
JORDAN           N/A     63  38  39 W15       29.92F
SIDNEY         SUNNY     64  46  52 SW12G20   29.89S
WOLF POINT     SUNNY     62  46  55 W13       29.89R
PLENTYWOOD       N/A     59  46  63 W20       29.83S
POPLAR           N/A     61  45  55 SW15G21   29.89R
$$

MTZ028>42-056>058-311600-
SOUTHCENTRAL AND SOUTHEAST MONTANA

CITY           SKY/WX    TMP DP  RH WIND       PRES   REMARKS
BAKER          SUNNY     62  52  69 W7        29.98R
BILLINGS       MOSUNNY   59  44  57 S8        30.00S
LIVINGSTON     SUNNY     57  37  47 W14       30.03S
MILES CITY     SUNNY     63  49  60 W5        29.97R
FORSYTH          N/A     64  43  45 W12       29.96S
$$

REGIONAL REPORTS...DAKOTAS

CITY           SKY/WX    TMP DP  RH WIND       PRES   REMARKS
WILLISTON      SUNNY     64  49  57 W13       29.88R
MINOT          SUNNY     67  53  61 W12       29.81R
DICKINSON      SUNNY     65  51  60 W17       29.91R
BISMARCK       PTSUNNY   69  59  70 N14G21    29.85R
GRAND FORKS    CLOUDY    68  63  84 SW8       29.68R
FARGO          SUNNY     74  61  63 S15       29.70S
BUFFALO SD       N/A     64  50  60 NW7       29.92R
RAPID CITY     CLOUDY    64  55  72 N25G35    29.98R
$$

REGIONAL REPORTS...WYOMING/IDAHO/WASHINGTON

CITY           SKY/WX    TMP DP  RH WIND       PRES   REMARKS
GILLETTE       PTSUNNY   59  48  67 CALM      30.06R
SHERIDAN       SUNNY     62  45  53 CALM      30.04R
BUFFALO WY     SUNNY     61  44  53 S7        30.10S
CODY           SUNNY     59  39  47 S6        30.05S
YELLOWSTONE LA   N/A     51  24  34 MISG      30.25S
IDAHO FALLS    SUNNY     57  37  47 SW17      30.14R
SALMON         MOSUNNY   48  39  71 CALM      30.11S
BOISE          SUNNY     57  43  59 S3        30.10R
SPOKANE        CLOUDY    52  45  77 S12       30.03R
$$

REGIONAL REPORTS...ALBERTA

CITY           SKY/WX    TMP DP  RH WIND       PRES   REMARKS
$$

REGIONAL REPORTS...SASKATCHEWAN

CITY           SKY/WX    TMP DP  RH WIND       PRES   REMARKS
$$



USA.gov is the U.S. government's official web portal to all federal, state and local government web resources and services.